Location: Newark
(44.3248°N, 23.7839°E)
Time: 12:51:30
(UTC+00:00)

CAS-4A - Visible Passes

Search period start: 13 April 2024 00:00
Search period end: 23 April 2024 00:00
Orbit: 480 x 498 km, 43.0° (Epoch: 12 April)

Date Brightness Start Highest point End Pass type
(mag) Time Alt. Az. Time Alt. Az. Time Alt. Az.
16 Apr ? 02:51:08 10° SW 02:54:37 34° SSE 02:58:09 10° E visible
17 Apr ? 02:26:23 17° SSW 02:28:44 34° SSE 02:32:15 10° E visible
18 Apr ? 02:01:32 27° SSW 02:02:48 34° SSE 02:06:19 10° E visible
19 Apr ? 01:36:38 34° SSE 01:36:50 34° SSE 01:40:21 10° E visible
20 Apr ? 01:11:40 30° SE 01:11:40 30° SE 01:14:21 10° E visible
20 Apr ? 02:46:00 11° WSW 02:49:40 71° S 02:53:30 10° E visible
21 Apr ? 00:46:39 22° ESE 00:46:39 22° ESE 00:48:19 10° E visible
21 Apr ? 02:20:59 19° WSW 02:23:38 71° S 02:27:28 10° E visible
22 Apr ? 00:21:36 14° E 00:21:36 14° E 00:22:14 10° E visible
22 Apr ? 01:55:56 32° WSW 01:57:34 71° S 02:01:24 10° E visible
